Location: Arlington
(40.6323°N, 74.1651°W)
Time: 04:48:06
(UTC+00:00)

Cosmos 1371 Rocket - Pass Details

Date: 22 November 2019
Orbit: 755 x 789 km, 74.0° (Epoch: 08 December)

Event Time Altitude Azimuth Distance (km) Brightness Sun altitude
Rises 22:35:20 0° 340° (NNW) 3,224 7.3 -11.6°
Reaches altitude 10° 22:37:42 10° 341° (NNW) 2,291 6.5 -12.1°
Maximum altitude 22:42:55 90° 269° (W) 760 4.0 -13.0°
Drops below altitude 10° 22:48:04 10° 163° (SSE) 2,272 6.4 -14.0°
Sets 22:50:25 0° 163° (SSE) 3,194 7.2 -14.4°
